Maui Island Weather Center

Moon Phase Calendar



Online Cameras

 


      

Current Conditions in Pukalani
6/13/2021 1:29:17 AM

60°F
Feels Like 59
Clouds
Humidity
74%
Pressure
30"
Wind
7 mph (ENE)
Dew Point
52°F
UV Index
0/10 (Low)
Visibility
6 mi

Hourly Forecast

Date & Time Sun, Jun 13
1:00 AM
Sun, Jun 13
2:00 AM
Sun, Jun 13
3:00 AM
Sun, Jun 13
4:00 AM
Sun, Jun 13
5:00 AM
Sun, Jun 13
6:00 AM
Sun, Jun 13
7:00 AM
Sun, Jun 13
8:00 AM
Sun, Jun 13
9:00 AM
Sun, Jun 13
10:00 AM
Sun, Jun 13
11:00 AM
Sun, Jun 13
12:00 PM
Sun, Jun 13
1:00 PM
Sun, Jun 13
2:00 PM
Sun, Jun 13
3:00 PM
Sun, Jun 13
4:00 PM
Sun, Jun 13
5:00 PM
Sun, Jun 13
6:00 PM
Sun, Jun 13
7:00 PM
Sun, Jun 13
8:00 PM
Sun, Jun 13
9:00 PM
Sun, Jun 13
10:00 PM
Sun, Jun 13
11:00 PM
Mon, Jun 14
12:00 AM
Mon, Jun 14
1:00 AM
Mon, Jun 14
2:00 AM
Mon, Jun 14
3:00 AM
Mon, Jun 14
4:00 AM
Mon, Jun 14
5:00 AM
Mon, Jun 14
6:00 AM
Mon, Jun 14
7:00 AM
Mon, Jun 14
8:00 AM
Mon, Jun 14
9:00 AM
Mon, Jun 14
10:00 AM
Mon, Jun 14
11:00 AM
Mon, Jun 14
12:00 PM
Mon, Jun 14
1:00 PM
Mon, Jun 14
2:00 PM
Mon, Jun 14
3:00 PM
Mon, Jun 14
4:00 PM
Mon, Jun 14
5:00 PM
Mon, Jun 14
6:00 PM
Mon, Jun 14
7:00 PM
Mon, Jun 14
8:00 PM
Mon, Jun 14
9:00 PM
Mon, Jun 14
10:00 PM
Mon, Jun 14
11:00 PM
Tue, Jun 15
12:00 AM
Condition
Clouds

Clouds

Clouds

Clouds

Clouds

Clouds

Rain

Rain

Clouds

Clouds

Clouds

Clouds

Clouds

Clouds

Clouds

Rain

Rain

Clouds

Clouds

Clouds

Rain

Clouds

Rain

Rain

Clouds

Rain

Clouds

Rain

Clouds

Clouds

Clouds

Clouds

Clouds

Clouds

Clouds

Clouds

Clouds

Clouds

Clouds

Clouds

Clouds

Clouds

Clouds

Clouds

Clouds

Clouds

Clouds

Clouds
Temperature 60°F60°F60°F60°F60°F61°F63°F63°F65°F68°F70°F71°F70°F68°F67°F66°F66°F65°F64°F64°F64°F63°F63°F63°F63°F63°F62°F62°F62°F61°F62°F64°F65°F67°F69°F72°F72°F72°F71°F69°F67°F66°F64°F63°F62°F62°F62°F61°F
Feels Like 59°F60°F60°F59°F60°F61°F63°F63°F65°F68°F70°F71°F70°F68°F67°F66°F66°F65°F64°F64°F64°F63°F63°F63°F63°F63°F62°F62°F62°F61°F62°F64°F65°F66°F69°F71°F71°F71°F70°F69°F67°F66°F64°F62°F62°F62°F61°F61°F
Cloudiness 75%77%79%83%89%84%80%82%82%81%73%67%63%64%86%91%92%90%88%88%87%93%93%95%96%97%100%100%100%95%92%93%100%100%100%98%95%90%74%76%84%88%90%92%100%100%100%100%
Visibility 5 mi6 mi6 mi6 mi6 mi6 mi6 mi4 mi6 mi6 mi6 mi6 mi6 mi6 mi6 mi6 mi5 mi6 mi6 mi6 mi6 mi6 mi5 mi6 mi6 mi6 mi6 mi4 mi6 mi6 mi6 mi6 mi6 mi6 mi6 mi6 mi6 mi6 mi6 mi6 mi6 mi6 mi6 mi6 mi6 mi6 mi6 mi6 mi
Precipitation 4%0%11%7%14%14%22%39%28%12%12%12%4%4%4%28%31%11%14%14%22%22%26%26%37%37%43%38%34%18%7%7%0%0%0%0%0%0%0%0%0%0%0%0%0%0%0%0%
Humidity 74%77%79%82%84%87%85%86%77%66%62%62%66%73%78%81%83%81%82%83%83%86%87%85%84%85%85%88%86%86%81%75%69%63%54%49%49%52%57%62%68%71%75%78%80%81%82%81%
Dew Point 52°F53°F54°F54°F55°F59°F60°F61°F60°F58°F58°F59°F60°F61°F62°F62°F62°F61°F61°F60°F60°F61°F61°F60°F60°F60°F60°F60°F59°F59°F58°F58°F57°F55°F54°F53°F54°F55°F56°F57°F58°F58°F58°F58°F58°F58°F58°F58°F
Pressure 30"30.03"30.03"30.06"30.09"30.12"30.15"30.15"30.15"30.15"30.15"30.12"30.12"30.12"30.12"30.12"30.09"30.12"30.12"30.15"30.15"30.18"30.18"30.15"30.12"30.12"30.12"30.09"30.12"30.12"30.15"30.15"30.15"30.15"30.12"30.12"30.09"30.09"30.09"30.06"30.09"30.09"30.12"30.15"30.15"30.15"30.15"30.15"
Wind Speed 7.8 mph6.7 mph6.2 mph6.7 mph7.9 mph7.7 mph7.9 mph8.2 mph7.5 mph5.7 mph5.9 mph5.5 mph5 mph4.7 mph6.1 mph7 mph8.1 mph7.6 mph7.8 mph8.3 mph9.1 mph9.1 mph8.8 mph9.5 mph9.1 mph8.5 mph8 mph9 mph9.7 mph8.6 mph9 mph7.3 mph6 mph5 mph3.4 mph4.1 mph5.6 mph6 mph5.7 mph6.9 mph6.7 mph6.8 mph6 mph5.5 mph5.5 mph6.8 mph7.6 mph6.7 mph
Wind
Direction
73°
ENE
75°
ENE
77°
ENE
69°
ENE
62°
ENE
63°
ENE
64°
ENE
67°
ENE
62°
ENE
58°
ENE
69°
ENE
66°
ENE
64°
ENE
56°
NE
61°
ENE
64°
ENE
67°
ENE
64°
ENE
59°
ENE
57°
ENE
60°
ENE
60°
ENE
61°
ENE
65°
ENE
63°
ENE
63°
ENE
63°
ENE
61°
ENE
59°
ENE
62°
ENE
64°
ENE
56°
NE
60°
ENE
67°
ENE
76°
ENE
71°
ENE
88°
E
90°
E
80°
E
63°
ENE
57°
ENE
68°
ENE
64°
ENE
69°
ENE
68°
ENE
69°
ENE
70°
ENE
76°
ENE

Daily Forecast

Date High Low Precip. Humidity
Today
Jun 13

Rain
71 °F
60 °F
39%
62%
Monday
Jun 14

Rain
72 °F
61 °F
43%
49%
Tuesday
Jun 15

Rain
72 °F
59 °F
20%
43%
Wednesday
Jun 16

Rain
70 °F
60 °F
20%
56%
Thursday
Jun 17

Rain
70 °F
63 °F
40%
66%
Friday
Jun 18

Rain
68 °F
62 °F
42%
69%
Saturday
Jun 19

Rain
68 °F
61 °F
37%
76%
Sunday
Jun 20

Rain
69 °F
62 °F
38%
70%
Monday
Jun 21

Rain
70 °F
64 °F
20%
76%
Tuesday
Jun 22

Clouds
70 °F
63 °F
0%
68%
Wednesday
Jun 23

Clouds
73 °F
63 °F
4%
59%
Thursday
Jun 24

Rain
72 °F
61 °F
33%
58%
Friday
Jun 25

Clear
72 °F
60 °F
23%
60%
Saturday
Jun 26

Rain
70 °F
62 °F
39%
68%
Sunday
Jun 27

Rain
69 °F
62 °F
50%
67%
Monday
Jun 28

Rain
67 °F
62 °F
38%
75%

Temperature 8-14 Day Outlook



Precipitation 8-14 Day Outlook




Quick Links
Maui Island News
Maui Island Photos
Maui Island Videos




About Us
Contact Us
Site Map
Search Site
Advertise With Us
   
Maui.USCoast.info
THE MAUI ISLAND WEBSITE

Copyright 2021, Coastal Town
Privacy    |    Legal